SCP
0 0 0 0 0 0 0 0 0 0 0 0 0 0 0 0 0 0 0 0 0 0 0 0 0 0 0 0 0 0 0 0 0 0 0 0 0 0 0 0 0 0 0 0
0 0 0 0 0 0 0 0 0 0 0 0 0 0 0 0 0 0 0 0 0 0 0 0 0 0 0 0 0 0 0 0 0 0 0 0 0 0 0 0 0 0 0 0
0 0 0 0 0 0 0 0 0 0 0 0 0 0 0 0 0 0 0 0 0 0 0 0 0 0 0 0 0 0 0 0 0 0 0 0 0 0 0 0 0 0 0 0
0 0 0 0 0 0 0 0 0 0 0 0 0 0 0 0 0 0 0 0 0 0 0 0 0 0 0 0 0 0 0 0 0 0 0 0 0 0 0 0 0 0 0 0
0 0 0 0 0 0 0 0 0 0 0 0 0 0 0 0 0 0 0 0 0 0 0 0 0 0 0 0 0 0 0 0 0 0 0 0 0 0 0 0 0 0 0 0
0 0 0 0 0 0 0 0 0 0 0 0 0 0 0 0 0 0 0 0 0 0 0 0 0 0 0 0 0 0 0 0 0 0 0 0 0 0 0 0 0 0 0 0
0 0 0 0 0 0 0 0 0 0 0 0 0 0 0 0 0 0 0 0 0 0 0 0 0 0 0 0 0 0 0 0 0 0 0 0 0 0 0 0 0 0 0 0
0 0 0 0 0 0 0 0 0 0 0 0 0 0 0 0 0 0 0 0 0 0 0 0 0 0 0 0 0 0 0 0 0 0 0 0 0 0 0 0 0 0 0 0
0 0 0 0 0 0 0 0 0 0 0 0 0 0 0 0 0 0 0 0 0 0 0 0 0 0 0 0 0 0 0 0 0 0 -0 0 0 0 0 0 0 0 0 0
0 0 0 0 0 0 0 0 0 0 0 0 0 0 0 0 0 0 0 0 0 0 0 0 0 0 0 0 0 0 0 0 -0 -0 -0 0 -0 -0 -0 0 0 0 0 0
0 0 0 0 0 0 0 0 0 0 0 0 0 0 0 0 0 0 0 0 0 0 0 0 0 0 0 0 0 0 -0 0 -0 -0 0 0 0 0 0 0 0 0 0 0
0 0 0 0 0 0 0 0 0 0 0 0 0 0 0 0 0 0 0 0 0 0 0 0 0 0 0 0 0 0 -0 0 0 0 -0 -0 0 0 0 0 0 0 0 0
0 0 0 0 0 0 0 0 0 0 0 0 0 0 0 0 0 0 0 0 0 0 0 0 0 0 0 0 0 0 -0 -0 -0 0 0 -0 0 0 0 0 0 0 0 0
0 0 0 0 0 0 0 0 0 0 0 0 0 0 0 0 0 0 0 0 0 0 0 0 0 0 0 0 0 0 0 0 -0 -0 0 0 0 0 0 0 0 0 0 0
0 0 0 0 0 0 0 0 0 0 0 0 0 0 0 0 0 0 0 0 0 0 0 0 0 0 0 0 0 0 0 0 -0 -0 -0 -0 -0 0 0 0 0 0 0 0
0 0 0 0 0 0 0 0 0 0 0 0 0 0 0 0 0 0 0 0 0 0 0 0 0 0 0 0 0 0 0 0 0 -0 -0 -0 -0 -0 0 0 0 0 0 0
0 0 0 0 0 0 0 0 0 0 0 0 0 0 0 0 0 0 0 0 0 0 0 0 0 0 0 0 0 0 0 0 0 0 -0 -0 -0 0 0 0 0 0 0 0
0 0 0 0 0 0 0 0 0 0 0 0 0 0 0 0 0 0 0 0 0 0 0 0 0 0 0 0 0 0 0 0 0 0 0 0 -0 -0 0 0 0 0 0 0
0 0 0 0 0 0 0 0 0 0 0 0 0 0 0 0 0 0 0 0 0 0 0 0 0 0 0 0 0 0 0 0 0 0 0 0 0 0 0 -0 -0 0 0 0
0 0 0 0 0 0 0 0 0 0 0 0 0 0 0 0 0 0 0 0 0 0 0 0 0 0 0 0 0 0 0 0 0 0 0 0 0 0 0 0 0 0 -0 -0
0 0 0 0 0 0 0 0 0 0 0 0 0 0 0 0 0 0 0 0 0 0 0 0 0 0 0 0 0 0 0 0 0 0 0 0 0 0 0 0 0 0 0 0
0 0 0 0 0 0 0 0 0 0 0 0 0 0 -0 -0 0 0 0 0 0 0 0 0 0 0 0 0 0 0 0 0 0 0 0 0 0 0 0 0 0 0 0 0
0 0 0 0 0 0 0 0 0 0 0 0 0 0 -0 -0 0 0 0 0 0 0 0 0 0 0 0 0 0 0 0 0 0 0 0 0 0 0 0 0 0 0 0 0
0 0 0 0 0 0 0 0 0 0 0 0 0 0 0 0 0 0 0 0 0 0 0 0 -0 0 0 0 0 0 0 0 0 0 0 0 0 0 0 0 0 0 0 0
0 0 0 0 0 0 0 0 0 0 0 0 0 0 0 0 0 0 0 0 0 0 0 0 -0 0 0 0 0 0 0 0 0 0 0 0 0 0 0 0 0 0 0 0
0 0 0 0 -0 0 0 0 0 0 0 0 0 0 0 0 0 0 0 0 0 0 0 0 0 0 0 0 0 0 0 0 0 0 0 0 0 0 0 0 0 0 0 0
Wind_Speed_500mb
10 10 4 7 6 6 5 6 10 12 14 12 15 27 46 45 36 19 24 17 9 18 35 52 73 78 83 89 86 79 81 78 74 71 67 67 67 69 67 70 71 70 68 69
11 3 6 4 1 1 4 2 13 13 6 12 10 33 33 16 10 23 24 12 10 35 52 71 78 82 84 83 76 69 68 70 68 69 66 63 61 68 67 64 71 70 69 64
8 0 6 4 4 3 7 9 6 10 11 9 15 15 9 5 2 18 15 1 20 44 61 68 76 79 78 78 73 69 66 65 62 60 59 63 58 61 62 62 62 67 65 60
6 3 3 4 5 9 5 9 6 6 9 4 9 10 11 5 7 9 9 11 31 48 54 62 70 73 73 73 72 68 63 59 58 58 58 58 63 63 63 63 64 63 56 56
10 5 6 3 8 9 14 7 8 2 5 7 8 5 15 4 11 16 14 19 38 45 51 63 67 70 73 72 70 65 60 58 53 51 55 58 58 62 61 65 69 65 56 54
9 2 4 6 3 4 8 8 11 7 7 5 9 8 13 7 10 4 8 24 34 44 53 58 61 67 72 72 68 62 59 55 56 55 51 51 55 61 61 61 62 54 49 53
10 4 2 3 2 5 13 12 8 11 8 10 8 3 23 12 10 11 11 28 37 43 49 55 62 68 73 74 69 64 60 58 56 52 48 46 49 54 51 45 46 47 46 41
6 12 4 1 4 8 4 11 9 11 6 10 6 12 12 11 17 12 16 25 33 38 43 54 60 64 67 68 66 62 58 56 51 51 45 43 40 42 36 26 41 40 45 39
7 9 1 4 4 8 6 2 5 8 2 5 6 16 21 3 8 19 22 23 34 39 48 56 56 58 62 65 64 61 56 52 50 48 45 39 36 30 29 15 22 34 38 42
7 6 3 5 7 8 9 4 6 6 4 11 12 13 13 12 19 21 18 29 40 40 48 56 52 54 59 63 65 57 51 49 46 47 44 41 36 30 21 18 20 26 35 34
8 6 10 5 9 16 2 3 6 7 7 9 8 14 17 19 16 19 21 31 42 43 51 53 50 51 59 61 63 59 50 46 44 41 39 35 32 28 20 19 17 26 21 29
7 7 6 20 4 9 8 13 11 8 11 7 4 18 9 16 13 26 34 40 48 45 48 46 49 51 59 61 63 58 51 45 41 37 34 32 29 24 19 16 22 27 24 23
9 3 7 16 9 6 6 9 8 6 4 12 7 15 7 7 15 31 43 49 52 37 42 43 49 50 54 58 60 57 48 44 40 35 28 27 28 23 17 13 12 14 15 17
11 7 14 14 13 6 7 9 14 11 7 8 23 34 53 28 21 25 46 47 35 28 35 41 45 48 49 54 55 54 46 40 36 31 27 22 23 17 13 8 5 5 7 11
8 9 6 18 15 11 27 30 25 27 25 18 46 19 41 42 30 35 61 52 28 25 28 35 43 45 44 51 53 51 44 38 34 29 22 19 15 15 12 7 4 5 8 10
8 7 3 10 16 24 29 34 38 39 40 35 47 51 58 75 59 40 35 21 29 19 24 32 36 40 39 43 49 48 43 36 31 27 23 18 13 11 6 3 1 4 7 5
9 6 4 11 9 17 20 21 27 11 9 28 17 37 4 15 12 26 31 21 26 14 19 28 35 38 35 35 45 45 42 34 31 29 26 22 18 13 11 9 9 10 7 4
11 9 3 8 11 4 15 8 12 19 14 33 19 19 21 31 45 46 38 33 22 10 13 22 28 28 28 26 33 42 39 37 33 33 31 27 26 24 22 18 16 15 14 15
9 7 1 4 6 18 20 4 11 13 16 31 39 35 30 24 20 23 8 14 13 8 10 18 26 27 25 21 23 32 41 41 40 36 35 30 27 31 32 33 31 30 29 34
8 2 6 4 5 12 11 4 7 8 14 6 29 22 11 8 6 9 8 11 12 8 6 16 22 24 22 18 17 21 29 39 43 42 38 35 34 35 38 41 43 45 49 54
7 4 22 10 9 20 27 23 4 10 13 4 27 27 23 10 15 10 9 15 14 10 3 11 17 19 19 17 16 15 20 27 35 36 37 38 42 45 44 45 48 50 52 54
18 17 10 6 6 19 33 16 19 16 15 22 27 30 35 27 23 22 18 19 19 14 7 7 13 17 16 15 13 12 13 17 20 21 25 31 31 34 35 39 40 41 41 44
5 17 13 22 20 15 36 26 32 30 25 30 31 29 31 27 28 31 29 25 25 18 13 7 9 14 14 13 12 11 10 11 13 12 13 16 19 22 25 25 29 31 33 34
10 17 7 5 24 42 67 81 77 71 71 72 65 57 43 42 34 38 37 32 32 27 19 11 6 7 9 9 10 10 10 10 11 8 10 14 15 20 21 24 28 29 29 30
13 25 14 17 47 41 80 79 86 67 61 62 64 68 74 73 54 45 43 40 35 31 28 17 11 4 2 5 8 10 10 10 13 14 15 18 21 22 24 27 27 28 28 25
25 16 12 23 69 34 55 74 57 52 53 45 44 50 44 50 50 47 50 41 37 38 33 25 17 12 6 6 8 11 12 14 15 13 15 17 17 18 23 24 28 28 28 26
Wind_Direction_500mb
17 64 177 207 163 139 163 230 241 262 272 312 249 281 286 297 297 264 187 193 247 303 309 314 318 317 317 314 312 310 307 305 304 302 297 291 288 290 283 261 258 259 252 252
20 184 192 151 184 239 187 191 271 288 307 337 305 288 292 296 240 197 185 197 318 326 320 321 320 319 317 316 315 311 305 303 302 296 297 290 291 289 288 279 256 253 251 245
150 184 149 94 0 354 239 191 242 250 321 258 305 291 313 336 119 176 166 356 321 329 326 323 321 321 322 320 319 313 308 304 302 297 297 292 292 290 290 287 273 255 254 247
209 315 144 54 267 137 299 186 263 286 36 275 40 280 297 282 205 198 203 311 325 329 324 322 324 326 326 325 320 314 309 302 299 298 294 290 289 286 287 283 281 264 251 240
256 171 198 140 231 140 236 341 302 167 131 38 320 61 269 272 236 228 240 309 328 327 328 330 328 329 330 329 322 315 310 303 298 294 290 290 289 283 282 281 280 268 244 232
232 327 176 220 287 232 316 16 34 50 95 9 240 124 277 239 220 211 256 305 322 332 335 331 332 333 333 331 325 318 311 311 304 298 293 290 289 285 278 281 272 260 244 229
337 253 269 216 343 19 50 49 343 349 4 228 324 351 246 256 229 209 263 315 326 332 335 338 340 339 337 334 329 320 314 308 306 300 295 289 292 284 288 280 260 259 243 227
119 325 144 353 154 180 66 135 147 251 269 277 360 236 253 232 202 218 271 298 315 324 331 331 336 341 339 334 330 323 317 309 304 303 298 293 293 285 290 275 252 254 246 224
128 280 215 56 85 109 256 74 147 100 104 23 256 287 294 159 283 257 271 298 316 324 329 326 331 339 338 337 335 329 321 312 307 303 298 295 295 282 290 278 212 222 223 216
185 344 260 281 91 22 147 153 47 7 336 298 287 282 243 280 252 251 276 290 326 319 318 326 333 337 342 342 338 334 326 318 313 305 302 298 297 297 292 278 238 207 206 203
128 99 285 59 199 183 20 348 44 129 151 194 291 269 224 234 230 232 244 283 319 310 311 324 333 338 346 345 343 338 334 328 321 312 305 302 302 302 294 279 253 252 219 216
199 142 243 224 250 200 174 185 160 134 261 233 199 266 238 235 240 224 258 284 310 310 310 326 334 340 347 347 347 343 340 335 331 322 315 310 312 310 301 296 265 248 236 232
180 298 349 338 7 354 214 204 163 131 108 207 154 264 308 293 279 251 264 291 310 300 317 331 332 342 348 349 349 348 346 342 337 331 324 321 316 306 288 260 254 249 243 241
171 198 192 220 212 143 217 218 207 152 162 195 232 274 288 290 261 274 281 297 304 304 321 332 335 345 347 351 352 353 352 348 343 343 331 323 319 316 303 283 241 236 260 268
137 217 249 267 259 219 244 250 228 209 217 203 263 222 267 284 293 287 298 303 294 304 326 337 340 343 350 354 358 360 0 354 353 356 352 349 342 334 324 305 280 254 236 266
177 261 107 281 265 266 264 249 244 228 236 243 254 274 270 276 283 281 291 285 293 309 329 339 342 342 354 357 3 6 10 7 11 12 19 21 17 6 357 20 325 255 216 261
172 165 58 268 334 315 286 244 229 179 205 217 207 238 357 282 259 266 289 279 290 302 329 340 345 344 354 2 8 13 21 21 28 35 37 41 47 57 81 104 133 133 140 228
151 129 116 270 356 317 246 182 174 190 213 213 265 263 243 258 289 290 281 278 280 277 323 336 344 348 355 7 13 23 29 36 41 52 55 56 66 75 83 93 101 105 113 121
173 130 271 233 205 295 290 135 145 176 280 209 220 249 265 296 305 296 279 233 222 240 321 344 351 357 360 14 16 27 35 47 50 55 60 66 77 86 92 95 98 101 112 106
144 151 162 88 192 244 241 110 160 160 290 249 188 226 206 162 355 263 215 198 205 213 327 351 353 1 3 18 23 29 37 45 52 57 67 75 78 86 95 102 106 110 108 105
151 185 215 207 253 280 254 235 32 81 244 339 216 228 185 192 220 278 223 206 212 217 282 345 356 7 8 23 29 37 48 53 56 55 62 70 80 86 91 97 102 103 104 106
169 163 195 140 201 276 187 97 174 226 231 207 226 240 228 242 256 257 242 219 218 223 235 329 354 7 13 26 35 47 54 66 69 68 67 72 75 82 87 92 95 97 104 107
232 194 184 189 213 244 194 230 244 252 256 268 256 251 250 254 261 259 250 233 224 226 225 284 340 3 11 22 37 53 70 69 75 71 68 76 86 92 97 97 100 105 105 104
246 176 216 89 245 240 250 253 260 267 266 270 266 268 269 273 273 265 251 238 227 222 224 241 284 352 6 24 47 54 72 82 65 55 69 73 86 92 91 101 105 103 104 107
192 149 187 258 274 273 267 265 269 275 273 276 279 274 266 263 261 259 253 241 230 221 227 221 236 235 347 70 76 77 76 82 90 92 105 101 95 91 99 99 96 96 97 99
185 180 198 250 263 254 269 284 291 279 276 276 277 283 273 253 256 247 249 241 232 220 224 217 219 214 199 141 118 111 102 93 87 81 87 100 105 101 100 93 98 95 92 94
Wind_Speed_850mb
10 10 4 7 6 6 5 6 10 12 14 12 15 27 46 45 36 19 24 17 9 18 35 52 73 78 83 89 86 79 81 78 74 71 67 67 67 69 67 70 71 70 68 69
11 3 6 4 1 1 4 2 13 13 6 12 10 33 33 16 10 23 24 12 10 35 52 71 78 82 84 83 76 69 68 70 68 69 66 63 61 68 67 64 71 70 69 64
8 0 6 4 4 3 7 9 6 10 11 9 15 15 9 5 2 18 15 1 20 44 61 68 76 79 78 78 73 69 66 65 62 60 59 63 58 61 62 62 62 67 65 60
6 3 3 4 5 9 5 9 6 6 9 4 9 10 11 5 7 9 9 11 31 48 54 62 70 73 73 73 72 68 63 59 58 58 58 58 63 63 63 63 64 63 56 56
10 5 6 3 8 9 14 7 8 2 5 7 8 5 15 4 11 16 14 19 38 45 51 63 67 70 73 72 70 65 60 58 53 51 55 58 58 62 61 65 69 65 56 54
9 2 4 6 3 4 8 8 11 7 7 5 9 8 13 7 10 4 8 24 34 44 53 58 61 67 72 72 68 62 59 55 56 55 51 51 55 61 61 61 62 54 49 53
10 4 2 3 2 5 13 12 8 11 8 10 8 3 23 12 10 11 11 28 37 43 49 55 62 68 73 74 69 64 60 58 56 52 48 46 49 54 51 45 46 47 46 41
6 12 4 1 4 8 4 11 9 11 6 10 6 12 12 11 17 12 16 25 33 38 43 54 60 64 67 68 66 62 58 56 51 51 45 43 40 42 36 26 41 40 45 39
7 9 1 4 4 8 6 2 5 8 2 5 6 16 21 3 8 19 22 23 34 39 48 56 56 58 62 65 64 61 56 52 50 48 45 39 36 30 29 15 22 34 38 42
7 6 3 5 7 8 9 4 6 6 4 11 12 13 13 12 19 21 18 29 40 40 48 56 52 54 59 63 65 57 51 49 46 47 44 41 36 30 21 18 20 26 35 34
8 6 10 5 9 16 2 3 6 7 7 9 8 14 17 19 16 19 21 31 42 43 51 53 50 51 59 61 63 59 50 46 44 41 39 35 32 28 20 19 17 26 21 29
7 7 6 20 4 9 8 13 11 8 11 7 4 18 9 16 13 26 34 40 48 45 48 46 49 51 59 61 63 58 51 45 41 37 34 32 29 24 19 16 22 27 24 23
9 3 7 16 9 6 6 9 8 6 4 12 7 15 7 7 15 31 43 49 52 37 42 43 49 50 54 58 60 57 48 44 40 35 28 27 28 23 17 13 12 14 15 17
11 7 14 14 13 6 7 9 14 11 7 8 23 34 53 28 21 25 46 47 35 28 35 41 45 48 49 54 55 54 46 40 36 31 27 22 23 17 13 8 5 5 7 11
8 9 6 18 15 11 27 30 25 27 25 18 46 19 41 42 30 35 61 52 28 25 28 35 43 45 44 51 53 51 44 38 34 29 22 19 15 15 12 7 4 5 8 10
8 7 3 10 16 24 29 34 38 39 40 35 47 51 58 75 59 40 35 21 29 19 24 32 36 40 39 43 49 48 43 36 31 27 23 18 13 11 6 3 1 4 7 5
9 6 4 11 9 17 20 21 27 11 9 28 17 37 4 15 12 26 31 21 26 14 19 28 35 38 35 35 45 45 42 34 31 29 26 22 18 13 11 9 9 10 7 4
11 9 3 8 11 4 15 8 12 19 14 33 19 19 21 31 45 46 38 33 22 10 13 22 28 28 28 26 33 42 39 37 33 33 31 27 26 24 22 18 16 15 14 15
9 7 1 4 6 18 20 4 11 13 16 31 39 35 30 24 20 23 8 14 13 8 10 18 26 27 25 21 23 32 41 41 40 36 35 30 27 31 32 33 31 30 29 34
8 2 6 4 5 12 11 4 7 8 14 6 29 22 11 8 6 9 8 11 12 8 6 16 22 24 22 18 17 21 29 39 43 42 38 35 34 35 38 41 43 45 49 54
7 4 22 10 9 20 27 23 4 10 13 4 27 27 23 10 15 10 9 15 14 10 3 11 17 19 19 17 16 15 20 27 35 36 37 38 42 45 44 45 48 50 52 54
18 17 10 6 6 19 33 16 19 16 15 22 27 30 35 27 23 22 18 19 19 14 7 7 13 17 16 15 13 12 13 17 20 21 25 31 31 34 35 39 40 41 41 44
5 17 13 22 20 15 36 26 32 30 25 30 31 29 31 27 28 31 29 25 25 18 13 7 9 14 14 13 12 11 10 11 13 12 13 16 19 22 25 25 29 31 33 34
10 17 7 5 24 42 67 81 77 71 71 72 65 57 43 42 34 38 37 32 32 27 19 11 6 7 9 9 10 10 10 10 11 8 10 14 15 20 21 24 28 29 29 30
13 25 14 17 47 41 80 79 86 67 61 62 64 68 74 73 54 45 43 40 35 31 28 17 11 4 2 5 8 10 10 10 13 14 15 18 21 22 24 27 27 28 28 25
25 16 12 23 69 34 55 74 57 52 53 45 44 50 44 50 50 47 50 41 37 38 33 25 17 12 6 6 8 11 12 14 15 13 15 17 17 18 23 24 28 28 28 26
Wind_Direction_850mb
17 64 177 207 163 139 163 230 241 262 272 312 249 281 286 297 297 264 187 193 247 303 309 314 318 317 317 314 312 310 307 305 304 302 297 291 288 290 283 261 258 259 252 252
20 184 192 151 184 239 187 191 271 288 307 337 305 288 292 296 240 197 185 197 318 326 320 321 320 319 317 316 315 311 305 303 302 296 297 290 291 289 288 279 256 253 251 245
150 184 149 94 0 354 239 191 242 250 321 258 305 291 313 336 119 176 166 356 321 329 326 323 321 321 322 320 319 313 308 304 302 297 297 292 292 290 290 287 273 255 254 247
209 315 144 54 267 137 299 186 263 286 36 275 40 280 297 282 205 198 203 311 325 329 324 322 324 326 326 325 320 314 309 302 299 298 294 290 289 286 287 283 281 264 251 240
256 171 198 140 231 140 236 341 302 167 131 38 320 61 269 272 236 228 240 309 328 327 328 330 328 329 330 329 322 315 310 303 298 294 290 290 289 283 282 281 280 268 244 232
232 327 176 220 287 232 316 16 34 50 95 9 240 124 277 239 220 211 256 305 322 332 335 331 332 333 333 331 325 318 311 311 304 298 293 290 289 285 278 281 272 260 244 229
337 253 269 216 343 19 50 49 343 349 4 228 324 351 246 256 229 209 263 315 326 332 335 338 340 339 337 334 329 320 314 308 306 300 295 289 292 284 288 280 260 259 243 227
119 325 144 353 154 180 66 135 147 251 269 277 360 236 253 232 202 218 271 298 315 324 331 331 336 341 339 334 330 323 317 309 304 303 298 293 293 285 290 275 252 254 246 224
128 280 215 56 85 109 256 74 147 100 104 23 256 287 294 159 283 257 271 298 316 324 329 326 331 339 338 337 335 329 321 312 307 303 298 295 295 282 290 278 212 222 223 216
185 344 260 281 91 22 147 153 47 7 336 298 287 282 243 280 252 251 276 290 326 319 318 326 333 337 342 342 338 334 326 318 313 305 302 298 297 297 292 278 238 207 206 203
128 99 285 59 199 183 20 348 44 129 151 194 291 269 224 234 230 232 244 283 319 310 311 324 333 338 346 345 343 338 334 328 321 312 305 302 302 302 294 279 253 252 219 216
199 142 243 224 250 200 174 185 160 134 261 233 199 266 238 235 240 224 258 284 310 310 310 326 334 340 347 347 347 343 340 335 331 322 315 310 312 310 301 296 265 248 236 232
180 298 349 338 7 354 214 204 163 131 108 207 154 264 308 293 279 251 264 291 310 300 317 331 332 342 348 349 349 348 346 342 337 331 324 321 316 306 288 260 254 249 243 241
171 198 192 220 212 143 217 218 207 152 162 195 232 274 288 290 261 274 281 297 304 304 321 332 335 345 347 351 352 353 352 348 343 343 331 323 319 316 303 283 241 236 260 268
137 217 249 267 259 219 244 250 228 209 217 203 263 222 267 284 293 287 298 303 294 304 326 337 340 343 350 354 358 360 0 354 353 356 352 349 342 334 324 305 280 254 236 266
177 261 107 281 265 266 264 249 244 228 236 243 254 274 270 276 283 281 291 285 293 309 329 339 342 342 354 357 3 6 10 7 11 12 19 21 17 6 357 20 325 255 216 261
172 165 58 268 334 315 286 244 229 179 205 217 207 238 357 282 259 266 289 279 290 302 329 340 345 344 354 2 8 13 21 21 28 35 37 41 47 57 81 104 133 133 140 228
151 129 116 270 356 317 246 182 174 190 213 213 265 263 243 258 289 290 281 278 280 277 323 336 344 348 355 7 13 23 29 36 41 52 55 56 66 75 83 93 101 105 113 121
173 130 271 233 205 295 290 135 145 176 280 209 220 249 265 296 305 296 279 233 222 240 321 344 351 357 360 14 16 27 35 47 50 55 60 66 77 86 92 95 98 101 112 106
144 151 162 88 192 244 241 110 160 160 290 249 188 226 206 162 355 263 215 198 205 213 327 351 353 1 3 18 23 29 37 45 52 57 67 75 78 86 95 102 106 110 108 105
151 185 215 207 253 280 254 235 32 81 244 339 216 228 185 192 220 278 223 206 212 217 282 345 356 7 8 23 29 37 48 53 56 55 62 70 80 86 91 97 102 103 104 106
169 163 195 140 201 276 187 97 174 226 231 207 226 240 228 242 256 257 242 219 218 223 235 329 354 7 13 26 35 47 54 66 69 68 67 72 75 82 87 92 95 97 104 107
232 194 184 189 213 244 194 230 244 252 256 268 256 251 250 254 261 259 250 233 224 226 225 284 340 3 11 22 37 53 70 69 75 71 68 76 86 92 97 97 100 105 105 104
246 176 216 89 245 240 250 253 260 267 266 270 266 268 269 273 273 265 251 238 227 222 224 241 284 352 6 24 47 54 72 82 65 55 69 73 86 92 91 101 105 103 104 107
192 149 187 258 274 273 267 265 269 275 273 276 279 274 266 263 261 259 253 241 230 221 227 221 236 235 347 70 76 77 76 82 90 92 105 101 95 91 99 99 96 96 97 99
185 180 198 250 263 254 269 284 291 279 276 276 277 283 273 253 256 247 249 241 232 220 224 217 219 214 199 141 118 111 102 93 87 81 87 100 105 101 100 93 98 95 92 94